1496149200.54,41173,23.0,74246.0,24.87,-11.07,-14.01,0,*47
1496149201.79,41174,23.0,74246.8,24.87,-11.59,-14.69,0,*45
1496149203.01,41175,23.0,74242.8,24.89,-12.29,-15.29,0,*4B
1496149204.23,41176,23.0,74242.0,24.89,-10.09,-12.75,0,*46
1496149205.45,41177,23.0,74240.5,24.93,-9.53,-12.21,0,*7A
1496149206.68,41178,23.0,74246.8,24.97,-9.71,-12.57,0,*70
1496149207.9,41179,23.0,74240.5,25.01,-11.45,-14.43,0,*42
1496149209.15,41180,23.0,74244.3,24.99,-11.51,-14.15,0,*42
1496149210.36,41181,23.0,74242.5,25.01,-10.15,-12.93,0,*4A
1496149211.6,41182,23.0,74240.5,25.05,-9.83,-12.65,0,*73
1496149212.81,41183,23.0,74246.3,25.05,-11.41,-14.37,0,*44
1496149214.03,41184,23.0,74244.5,25.09,-11.15,-14.01,0,*4B
1496149215.23,41185,23.0,74250.0,25.09,-10.85,-13.69,0,*4B
1496149216.45,41186,23.0,74244.0,25.11,-10.85,-13.65,0,*4D
1496149217.68,41187,23.0,74246.8,25.13,-8.89,-11.51,0,*7E
1496149218.9,41188,23.0,74244.5,25.13,-9.37,-12.21,0,*71
1496149220.16,41189,23.0,74246.5,25.15,-11.11,-14.05,0,*4B
1496149221.44,41190,23.0,74242.3,25.19,-9.37,-11.89,0,*73
1496149222.69,41191,23.0,74246.0,25.23,-9.31,-12.07,0,*78
1496149223.95,41192,23.0,74246.0,25.25,-9.11,-11.63,0,*7E
1496149225.2,41193,23.0,74246.0,25.27,-8.67,-11.29,0,*73
1496149226.44,41194,23.0,74244.5,25.31,-9.89,-12.53,0,*7C
1496149227.64,41195,23.0,74246.3,25.33,-9.67,-12.29,0,*72
1496149228.83,41196,23.0,74244.5,25.33,-11.11,-13.73,0,*47
1496149230.09,41197,23.0,74244.0,25.33,-10.79,-13.61,0,*4A
1496149231.31,41198,23.0,74244.3,25.35,-11.01,-13.73,0,*4E
1496149232.59,41199,23.0,74244.0,25.35,-11.33,-14.01,0,*4C
1496149233.88,41200,23.0,74242.8,25.41,-11.93,-14.83,0,*4C
1496149235.11,41201,23.0,74242.0,25.41,-12.97,-15.67,0,*41
1496149236.33,41202,23.0,74246.8,25.37,-9.79,-12.57,0,*7D
1496149237.55,41203,23.0,74240.5,25.41,-11.15,-13.69,0,*42
1496149238.75,41204,23.0,74244.0,25.37,-10.97,-13.43,0,*47
1496149239.98,41205,23.0,74246.8,25.41,-11.41,-14.23,0,*4C
1496149241.27,41206,23.0,74244.5,25.41,-11.93,-14.51,0,*45
1496149242.53,41207,23.0,74244.3,25.41,-10.41,-12.97,0,*46
1496149243.77,41208,23.0,74246.3,25.45,-10.49,-13.01,0,*4B
1496149245.03,41209,23.0,74242.8,25.45,-11.59,-14.33,0,*4C
1496149246.27,41210,23.0,74244.0,25.45,-11.45,-14.15,0,*4D
1496149247.47,41211,23.0,74244.3,25.43,-13.15,-15.95,0,*44
1496149248.71,41212,23.0,74244.3,25.43,-11.93,-14.61,0,*41
1496149249.97,41213,23.0,74242.3,25.45,-10.19,-12.57,0,*46
1496149251.17,41214,23.0,74246.0,25.47,-9.79,-12.25,0,*78
1496149252.42,41215,23.0,74244.5,25.49,-11.59,-14.29,0,*46
1496149253.71,41216,23.0,74244.8,25.49,-12.83,-15.39,0,*41
1496149254.93,41217,23.0,74246.0,25.49,-10.89,-13.23,0,*45
1496149256.2,41218,23.0,74246.3,25.49,-12.21,-14.79,0,*42
1496149257.46,41219,23.0,74244.5,25.49,-12.93,-15.43,0,*42
1496149258.72,41220,23.0,74240.8,25.49,-12.53,-15.07,0,*44
1496149259.94,41221,23.0,74246.3,25.49,-11.15,-13.55,0,*45
1496149261.17,41222,23.0,74244.5,25.49,-11.41,-14.11,0,*40
1496149262.43,41223,23.0,74242.5,25.47,-13.01,-15.43,0,*4F
1496149263.69,41224,23.0,74240.8,25.47,-11.63,-13.87,0,*40
1496149264.94,41225,23.0,74242.8,25.49,-11.29,-13.51,0,*4A
1496149266.17,41226,23.0,74240.0,25.51,-10.53,-12.79,0,*47
1496149267.39,41227,23.0,74244.8,25.51,-9.83,-12.03,0,*7E
1496149268.64,41228,23.0,74242.0,25.53,-9.71,-11.89,0,*7F
1496149269.87,41229,23.0,74246.3,25.55,-10.31,-12.57,0,*44
1496149271.12,41230,23.0,74244.3,25.57,-13.69,-16.13,0,*44
1496149272.38,41231,23.0,74242.5,25.57,-12.53,-15.29,0,*47
1496149273.6,41232,23.0,74244.8,25.55,-13.19,-15.49,0,*4F
1496149274.85,41233,23.0,74242.5,25.55,-11.85,-13.83,0,*49
1496149276.1,41234,23.0,74244.5,25.55,-10.63,-12.75,0,*4F
1496149277.35,41235,23.0,74244.8,25.57,-8.63,-11.29,0,*7F
1496149278.6,41236,23.0,74244.3,25.57,-13.43,-16.27,0,*4D
1496149279.86,41237,23.0,74246.8,25.55,-13.29,-15.57,0,*46
1496149281.12,41238,23.0,74246.3,25.55,-12.15,-14.47,0,*47
1496149282.36,41239,23.0,74244.8,25.55,-11.07,-13.19,0,*4A
1496149283.57,41240,23.0,74246.5,25.57,-10.05,-12.25,0,*4B
1496149284.8,41241,23.0,74244.0,25.57,-11.01,-13.11,0,*49
1496149286.03,41242,23.0,74244.5,25.59,-10.01,-12.07,0,*43
1496149287.27,41243,23.0,74244.3,25.61,-9.45,-10.93,0,*7E
1496149288.53,41244,23.0,74246.8,25.61,-10.93,-11.89,0,*40
1496149289.8,41245,23.0,74246.3,25.61,-11.89,-14.05,0,*4A
1496149291.05,41246,23.0,74242.0,25.61,-12.75,-14.61,0,*4B
1496149292.27,41247,23.0,74240.3,25.61,-10.85,-12.93,0,*4C
1496149293.51,41248,23.0,74240.5,25.65,-9.93,-11.89,0,*70
1496149294.74,41249,23.0,74242.0,25.67,-12.43,-14.51,0,*44
1496149295.98,41250,23.0,74242.0,25.67,-11.81,-13.79,0,*4C
1496149297.2,41251,23.0,74240.5,25.65,-11.23,-13.15,0,*4D
1496149298.4,41252,23.0,74242.8,25.67,-10.57,-12.43,0,*4C
1496149299.64,41253,23.0,74244.5,25.69,-9.89,-11.63,0,*79
1496149300.87,41254,23.0,74240.3,25.71,-10.23,-12.07,0,*4E
1496149302.09,41255,23.0,74240.5,25.73,-13.47,-15.57,0,*4E
1496149303.32,41256,23.0,74244.0,25.73,-11.01,-12.61,0,*4F
1496149304.55,41257,23.0,74240.5,25.75,-10.57,-12.25,0,*4A
1496149305.81,41258,23.0,74242.0,25.75,-10.97,-12.53,0,*48
1496149307.03,41259,23.0,74240.5,25.75,-13.15,-14.69,0,*4F
1496149308.28,41260,23.0,74240.5,25.73,-11.63,-13.01,0,*49
1496149309.5,41261,23.0,74238.8,25.75,-9.93,-11.19,0,*73
1496149310.72,41262,23.0,74242.3,25.77,-10.09,-11.37,0,*45
1496149311.96,41263,23.0,74242.0,25.79,-10.09,-11.29,0,*45
1496149313.24,41264,23.0,74240.8,25.79,-11.29,-12.65,0,*4A
1496149314.5,41265,23.0,74238.0,25.83,-10.35,-11.29,0,*49
1496149315.72,41266,23.0,74238.8,25.83,-10.09,-11.19,0,*46
1496149316.97,41267,23.0,74242.8,25.87,-9.71,-10.67,0,*7C
1496149318.19,41268,23.0,74242.8,25.89,-10.49,-11.37,0,*4A
1496149319.45,41269,23.0,74238.8,25.89,-10.67,-11.37,0,*47
1496149320.69,41270,23.0,74240.3,25.93,-10.71,-11.33,0,*47
1496149321.94,41271,23.0,74242.5,25.93,-11.73,-12.53,0,*40
1496149323.17,41272,23.0,74238.8,25.93,-11.41,-11.89,0,*46
1496149324.39,41273,23.0,74242.8,25.93,-10.49,-10.71,0,*48
1496149325.66,41274,23.0,74246.8,25.95,-11.51,-11.85,0,*4B
1496149326.89,41275,23.0,74242.0,25.95,-13.23,-13.51,0,*46
1496149328.13,41276,23.0,74242.0,25.91,-16.41,-16.55,0,*41
1496149329.36,41277,23.0,74242.8,25.91,-17.69,-17.87,0,*45
1496149330.64,41278,23.0,74240.0,25.83,-17.93,-17.79,0,*4D
1496149331.83,41279,23.0,74242.3,25.77,-17.31,-16.89,0,*41
1496149333.03,41280,23.0,74242.0,25.73,-14.89,-14.29,0,*4B
1496149334.29,41281,23.0,74240.3,25.71,-14.47,-13.83,0,*4D
1496149335.52,41282,23.0,74240.3,25.69,-14.93,-13.93,0,*4F
1496149336.77,41283,23.0,74240.5,25.69,-11.81,-10.53,0,*47
1496149338.0,41284,23.0,74238.5,25.71,-11.51,-10.15,0,*46
1496149339.23,41285,23.0,74240.3,25.71,-13.11,-11.55,0,*44
1496149340.48,41286,23.0,74242.5,25.69,-14.19,-12.65,0,*41
1496149341.75,41287,23.0,74242.3,25.69,-13.83,-11.81,0,*4D
1496149342.96,41288,23.0,74236.5,25.67,-12.39,-10.01,0,*45
1496149344.18,41289,23.0,74240.3,25.69,-12.97,-10.45,0,*4E
1496149345.4,41290,23.0,74242.0,25.69,-11.11,-8.25,0,*74
1496149346.65,41291,23.06,74242.3,25.71,-10.67,-7.57,0,*76
1496149347.87,41292,23.0,74242.0,25.71,-11.11,-7.65,0,*74
1496149349.15,41293,23.06,74240.5,25.75,-10.71,-6.97,0,*7A
1496149350.4,41294,23.0,74236.8,25.75,-11.01,-7.05,0,*71
1496149351.64,41295,23.0,74238.5,25.79,-10.01,-5.81,0,*73
1496149352.9,41296,23.0,74236.0,25.79,-11.37,-7.05,0,*7A
1496149354.15,41297,23.0,74236.5,25.83,-12.43,-7.91,0,*73
1496149355.38,41298,23.0,74236.3,25.81,-14.15,-9.45,0,*7C
1496149356.6,41299,23.0,74240.5,25.77,-14.79,-9.97,0,*71
1496149357.82,41300,23.06,74242.0,25.73,-18.11,-12.57,0,*40
1496149359.04,41301,23.0,74236.8,25.67,-17.31,-11.81,0,*41
1496149360.31,41302,23.06,74240.5,25.61,-17.59,-11.77,0,*43
1496149361.53,41303,23.0,74238.5,25.55,-15.89,-9.79,0,*7D
1496149362.73,41304,23.0,74238.5,25.51,-15.49,-9.19,0,*74
1496149363.98,41305,23.0,74238.3,25.49,-15.85,-9.27,0,*71
1496149365.17,41306,23.0,74236.3,25.47,-15.49,-8.71,0,*7E
1496149366.41,41307,23.0,74238.3,25.43,-17.69,-10.63,0,*41
1496149367.64,41308,23.0,74238.8,25.33,-17.59,-10.27,0,*4A
1496149368.87,41309,23.06,74240.5,25.31,-16.55,-9.01,0,*78
1496149370.1,41310,23.0,74238.0,25.25,-17.21,-9.71,0,*70
1496149371.34,41311,23.0,74236.8,25.21,-17.25,-9.83,0,*7C
1496149372.59,41312,23.06,74240.3,25.15,-16.93,-9.53,0,*79
1496149373.82,41313,23.0,74238.0,25.07,-17.83,-10.23,0,*44
1496149375.07,41314,23.06,74240.8,25.03,-17.55,-10.09,0,*44
1496149376.29,41315,23.0,74236.0,24.99,-15.75,-8.21,0,*74
1496149377.49,41316,23.0,74236.5,24.93,-14.19,-6.89,0,*7A
1496149378.73,41317,23.0,74236.5,24.91,-15.57,-8.41,0,*78
1496149379.92,41318,23.06,74238.0,24.85,-15.53,-8.59,0,*7F
1496149381.15,41319,23.0,74238.8,24.81,-15.89,-9.01,0,*71
1496149382.36,41320,23.0,74238.5,24.75,-15.39,-8.71,0,*7D
1496149383.64,41321,23.06,74240.5,24.73,-13.79,-7.61,0,*76
1496149384.83,41322,23.06,74238.8,24.67,-15.49,-9.71,0,*7A
1496149386.03,41323,23.06,74238.5,24.63,-15.07,-9.89,0,*72
1496149387.3,41324,23.06,74238.3,24.57,-17.11,-12.61,0,*4B
1496149388.56,41325,23.0,74236.0,24.51,-16.17,-11.97,0,*41
1496149389.78,41326,23.06,74240.5,24.41,-15.15,-11.33,0,*4C
1496149391.02,41327,23.06,74240.5,24.37,-15.21,-12.07,0,*4F
1496149392.22,41328,23.06,74242.5,24.33,-16.03,-12.89,0,*41
1496149393.44,41329,23.06,74240.5,24.23,-16.45,-13.69,0,*4C
1496149394.71,41330,23.06,74242.8,24.19,-16.51,-13.79,0,*49
1496149395.94,41331,23.06,74242.5,24.15,-14.89,-12.29,0,*47
1496149397.19,41332,23.06,74240.3,24.07,-16.09,-13.37,0,*43
1496149398.44,41333,23.06,74240.3,24.01,-17.11,-14.19,0,*47
1496149399.68,41334,23.0,74236.8,23.97,-16.59,-13.65,0,*49
1496149400.93,41335,23.06,74238.0,23.91,-16.69,-13.37,0,*4A
1496149402.17,41336,23.06,74238.3,23.87,-16.13,-12.39,0,*4C
1496149403.4,41337,23.06,74242.3,23.85,-16.03,-12.47,0,*47
1496149404.62,41338,23.06,74242.3,23.77,-17.21,-13.23,0,*47
1496149405.87,41339,23.06,74238.3,23.71,-13.93,-9.83,0,*7C
1496149407.08,41340,23.0,74234.5,23.67,-12.47,-8.33,0,*77
1496149408.3,41341,23.06,74236.5,23.67,-12.25,-8.21,0,*71
1496149409.56,41342,23.0,74234.8,23.63,-14.01,-10.01,0,*4D
1496149410.81,41343,23.0,74236.0,23.57,-15.57,-11.55,0,*49
1496149412.07,41344,23.06,74238.0,23.51,-13.79,-10.15,0,*47
1496149413.29,41345,23.06,74236.8,23.47,-12.57,-8.93,0,*7B
1496149414.49,41346,23.06,74238.0,23.43,-11.01,-7.49,0,*74
1496149415.76,41347,23.06,74236.3,23.41,-11.37,-8.11,0,*70
1496149417.01,41348,23.06,74234.5,23.37,-12.79,-9.93,0,*7C
1496149418.25,41349,23.06,74236.0,23.31,-14.23,-11.29,0,*4A
1496149419.49,41350,23.06,74232.0,23.23,-13.33,-9.57,0,*77
1496149420.72,41351,23.06,74232.8,23.19,-13.93,-9.45,0,*76
1496149421.97,41352,23.06,74236.3,23.15,-12.25,-7.39,0,*70
1496149423.22,41353,23.06,74236.3,23.09,-12.83,-7.57,0,*78
1496149424.43,41354,23.06,74238.3,23.05,-14.79,-8.71,0,*7B
1496149425.66,41355,23.06,74232.8,22.97,-13.19,-7.01,0,*79
1496149426.86,41356,23.06,74236.8,22.93,-11.23,-4.65,0,*74
1496149428.08,41357,23.06,74238.5,22.87,-11.19,-4.49,0,*77
1496149429.33,41358,23.06,74236.8,22.87,-10.15,-3.51,0,*7B
1496149430.54,41359,23.06,74234.0,22.81,-9.75,-3.31,0,*44
1496149431.74,41360,23.06,74232.5,22.79,-6.89,-0.85,0,*79
1496149432.96,41361,23.06,74236.8,22.79,-7.27,-1.67,0,*40
1496149434.18,41362,23.0,74234.5,22.75,-7.99,-2.35,0,*4E
1496149435.37,41363,23.06,74232.5,22.71,-6.85,-1.51,0,*46
1496149436.58,41364,23.06,74234.5,22.71,-5.61,-0.29,0,*76
1496149437.84,41365,23.06,74236.8,22.65,-5.19,0.21,0,*58
1496149439.07,41366,23.06,74238.0,22.65,-4.05,1.47,0,*66
1496149440.31,41367,23.06,74236.8,22.65,-3.27,2.39,0,*6A
1496149441.58,41368,23.06,74238.0,22.65,-2.67,3.33,0,*6B
1496149442.84,41369,23.06,74232.0,22.65,-2.67,3.45,0,*6B
1496149444.03,41370,23.06,74232.8,22.67,-2.43,3.81,0,*6F
1496149445.27,41371,23.06,74236.5,22.65,-3.67,2.65,0,*60
1496149446.51,41372,23.06,74240.3,22.61,-2.55,3.81,0,*6C
1496149447.74,41373,23.06,74238.3,22.63,-2.63,3.71,0,*65
1496149448.98,41374,23.06,74236.0,22.61,-2.79,3.45,0,*6C
1496149450.24,41375,23.06,74240.0,22.57,-2.71,3.19,0,*69
1496149451.46,41376,23.06,74236.5,22.57,-1.67,4.07,0,*66
1496149452.7,41377,23.06,74236.0,22.53,-1.99,3.29,0,*69
1496149453.96,41378,23.06,74238.0,22.49,-2.55,2.25,0,*63
1496149455.15,41379,23.06,74238.5,22.43,-3.03,1.79,0,*60
1496149456.35,41380,23.06,74236.0,22.39,-2.91,1.51,0,*6B
1496149457.54,41381,23.06,74236.5,22.35,-0.69,3.25,0,*52
1496149458.76,41382,23.06,74234.5,22.33,0.95,4.49,0,*74
1496149459.96,41383,23.06,74236.8,22.31,2.25,5.15,0,*46
1496149461.16,41384,23.06,74240.0,22.31,2.85,5.29,0,*44
1496149462.4,41385,23.06,74236.3,22.33,3.41,5.29,0,*4E
1496149463.6,41386,23.06,74238.3,22.31,3.45,4.81,0,*48
1496149464.81,41387,23.06,74238.5,22.31,2.25,3.29,0,*4B
1496149466.01,41388,23.06,74236.5,22.31,2.91,3.79,0,*4E
1496149467.22,41389,23.06,74236.5,22.27,2.35,2.77,0,*49
1496149468.42,41390,23.06,74238.3,22.25,3.25,3.55,0,*42
1496149469.63,41391,23.06,74236.3,22.25,4.15,4.15,0,*44
1496149470.86,41392,23.06,74232.8,22.25,4.67,4.53,0,*40
1496149472.07,41393,23.06,74236.3,22.25,4.27,3.85,0,*49
1496149473.33,41394,23.06,74238.3,22.25,3.67,2.73,0,*45
1496149474.59,41395,23.06,74236.5,22.21,3.67,2.25,0,*43
1496149475.84,41396,23.06,74236.3,22.21,3.19,1.13,0,*4F
1496149477.07,41397,23.06,74238.0,22.21,4.45,1.97,0,*4C
1496149478.3,41398,23.06,74238.3,22.25,4.85,1.33,0,*45
1496149479.52,41399,23.06,74238.5,22.21,3.55,-0.85,0,*5B
1496149480.72,41400,23.06,74240.3,22.21,4.49,-0.65,0,*58
1496149481.95,41401,23.06,74238.5,22.21,2.85,-2.91,0,*66
1496149483.2,41402,23.06,74238.5,22.21,2.69,-3.59,0,*62
1496149484.44,41403,23.06,74234.8,22.21,2.21,-4.37,0,*60
1496149485.68,41404,23.06,74236.3,22.21,2.47,-4.29,0,*68
1496149486.9,41405,23.06,74236.3,22.21,1.79,-4.61,0,*6B
1496149488.16,41406,23.06,74240.5,22.21,0.55,-6.19,0,*5A
1496149489.36,41407,23.06,74238.8,22.21,-1.51,-8.67,0,*44
1496149490.61,41408,23.06,74238.5,22.21,-3.67,-11.01,0,*74
1496149491.83,41409,23.06,74238.0,22.19,-4.17,-11.23,0,*7E
1496149493.06,41410,23.06,74236.3,22.17,-4.93,-11.33,0,*75
1496149494.31,41411,23.06,74236.8,22.17,-6.19,-11.77,0,*74
1496149495.51,41412,23.06,74232.3,22.17,-8.59,-13.19,0,*77
1496149496.73,41413,23.06,74232.8,22.15,-6.89,-10.57,0,*7E
1496149497.93,41414,23.06,74236.8,22.17,-6.63,-9.31,0,*47
1496149499.15,41415,23.06,74232.3,22.19,-6.73,-8.89,0,*4B
1496149500.39,41416,23.06,74230.0,22.25,-5.47,-6.63,0,*49
1496149501.62,41417,23.06,74234.0,22.29,-7.31,-8.71,0,*4A
1496149502.84,41418,23.06,74232.3,22.35,-6.43,-6.93,0,*4E
1496149504.09,41419,23.06,74234.5,22.41,-6.13,-6.19,0,*4B
1496149505.3,41420,23.06,74234.5,22.43,-7.83,-7.69,0,*4D
1496149506.5,41421,23.06,74228.0,22.47,-6.85,-6.59,0,*4D
1496149507.69,41422,23.06,74230.8,22.55,-7.15,-6.35,0,*4F
1496149508.93,41423,23.06,74230.8,22.59,-7.39,-6.23,0,*4B
1496149510.12,41424,23.06,74230.3,22.63,-8.25,-6.89,0,*47
1496149511.32,41425,23.06,74230.8,22.63,-7.53,-5.73,0,*4E
1496149512.57,41426,23.06,74230.3,22.73,-8.25,-6.19,0,*4D
1496149513.77,41427,23.06,74234.5,22.75,-7.15,-4.57,0,*4E
1496149515.02,41428,23.06,74234.5,22.81,-6.97,-4.09,0,*4A
1496149516.25,41429,23.06,74234.3,22.87,-6.73,-3.51,0,*4D
1496149517.51,41430,23.06,74232.3,22.89,-9.15,-5.81,0,*4F
1496149518.73,41431,23.06,74234.3,22.97,-8.11,-4.25,0,*4B
1496149520.0,41432,23.06,74232.8,22.99,-7.77,-4.01,0,*4F
1496149521.23,41433,23.06,74236.3,23.03,-7.39,-3.39,0,*4A
1496149522.45,41434,23.06,74238.5,23.07,-8.17,-4.09,0,*4E
1496149523.69,41435,23.06,74240.5,23.09,-7.73,-3.51,0,*46
1496149524.93,41436,23.06,74236.3,23.17,-9.23,-4.77,0,*42
1496149526.18,41437,23.06,74236.5,23.17,-12.43,-7.65,0,*7F
1496149527.42,41438,23.06,74236.0,23.17,-9.53,-4.41,0,*4E
1496149528.64,41439,23.06,74238.8,23.19,-12.39,-7.05,0,*74
1496149529.89,41440,23.06,74240.0,23.19,-13.79,-8.03,0,*76
1496149531.14,41441,23.06,74240.3,23.15,-14.51,-8.93,0,*7F
1496149532.38,41442,23.06,74238.0,23.11,-14.51,-8.67,0,*73
1496149533.57,41443,23.06,74236.3,23.09,-14.65,-8.63,0,*78
1496149534.82,41444,23.06,74238.3,23.07,-15.75,-9.83,0,*7E
1496149536.05,41445,23.06,74238.5,23.03,-14.75,-8.71,0,*76
1496149537.33,41446,23.06,74242.3,22.99,-13.97,-8.03,0,*79
1496149538.56,41447,23.06,74240.5,22.97,-15.15,-9.37,0,*7C
1496149539.79,41448,23.06,74236.8,22.89,-17.07,-11.19,0,*48
1496149541.02,41449,23.06,74238.0,22.83,-16.69,-11.01,0,*43
1496149542.28,41450,23.06,74238.8,22.77,-16.37,-10.67,0,*4A
1496149543.5,41451,23.06,74238.0,22.71,-14.89,-9.41,0,*76
1496149544.69,41452,23.06,74236.3,22.71,-13.73,-8.41,0,*76
1496149545.94,41453,23.06,74236.8,22.63,-12.35,-6.93,0,*76
1496149547.19,41454,23.06,74238.0,22.65,-11.93,-6.77,0,*72
1496149548.44,41455,23.06,74236.3,22.61,-10.71,-5.97,0,*77
1496149549.63,41456,23.06,74236.8,22.63,-9.97,-5.47,0,*4B
1496149550.83,41457,23.06,74234.5,22.59,-10.93,-6.35,0,*79
1496149552.03,41458,23.06,74236.3,22.59,-9.01,-4.61,0,*46
1496149553.28,41459,23.06,74236.3,22.59,-9.37,-5.19,0,*4C
1496149554.5,41460,23.06,74236.0,22.59,-8.97,-4.85,0,*49
1496149555.72,41461,23.06,74238.0,22.59,-6.47,-1.99,0,*43
1496149556.95,41462,23.06,74238.8,22.63,-3.47,1.09,0,*68
1496149558.2,41463,23.06,74238.3,22.67,-2.47,2.05,0,*63
1496149559.42,41464,23.06,74238.8,22.77,-4.09,0.41,0,*5B
1496149560.62,41465,23.06,74234.5,22.81,-4.45,0.09,0,*67
1496149561.84,41466,23.06,74238.0,22.85,-5.19,-0.57,0,*7E
1496149563.03,41467,23.06,74234.8,22.85,-5.97,-1.33,0,*4A
1496149564.28,41468,23.06,74240.0,22.85,-7.57,-2.59,0,*44
1496149565.5,41469,23.06,74236.5,22.85,-7.35,-2.35,0,*4B
1496149566.7,41470,23.06,74242.0,22.85,-9.93,-4.65,0,*42
1496149567.9,41471,23.06,74238.0,22.83,-10.15,-4.33,0,*70
1496149569.11,41472,23.06,74238.8,22.79,-8.59,-2.47,0,*42
1496149570.36,41473,23.06,74238.5,22.79,-9.11,-2.51,0,*49
1496149571.59,41474,23.06,74236.0,22.77,-10.35,-3.31,0,*79
1496149572.78,41475,23.06,74238.8,22.71,-8.93,-1.51,0,*4F
1496149574.02,41476,23.06,74238.8,22.65,-9.89,-1.87,0,*48
1496149575.26,41477,23.06,74240.0,22.65,-9.89,-1.47,0,*45
1496149576.51,41478,23.06,74238.0,22.61,-8.03,0.47,0,*51
1496149577.72,41479,23.13,74240.8,22.61,-7.87,1.05,0,*64
1496149578.96,41480,23.06,74238.5,22.59,-6.97,1.97,0,*62
1496149580.18,41481,23.06,74238.8,22.59,-9.41,-0.19,0,*7D
1496149581.43,41482,23.06,74234.8,22.53,-11.45,-1.87,0,*7F
1496149582.65,41483,23.06,74238.5,22.47,-8.89,0.51,0,*54
1496149583.88,41484,23.06,74238.0,22.41,-8.21,1.17,0,*64
1496149585.09,41485,23.06,74238.8,22.39,-8.55,0.79,0,*50
1496149586.33,41486,23.06,74238.3,22.33,-8.85,0.17,0,*5C
1496149587.55,41487,23.06,74236.3,22.27,-9.37,-0.73,0,*7F
1496149588.79,41488,23.06,74234.3,22.21,-9.53,-1.21,0,*42
1496149589.97,41489,23.06,74232.5,22.13,-8.41,-0.45,0,*73
1496149591.15,41490,23.06,74238.8,22.05,-7.49,-0.03,0,*49
1496149592.36,41491,23.06,74236.3,21.99,-6.85,0.05,0,*64
1496149593.6,41492,23.06,74238.0,21.95,-6.01,0.55,0,*52
1496149594.84,41493,23.06,74236.8,21.89,-7.01,-0.85,0,*7F
1496149596.06,41494,23.06,74238.8,21.81,-6.13,-0.41,0,*7A
1496149597.26,41495,23.06,74238.0,21.73,-6.01,-0.65,0,*73
1496149598.5,41496,23.06,74236.8,21.69,-4.61,0.51,0,*55
1496149599.69,41497,23.06,74234.5,21.63,-4.13,0.43,0,*58
1496149600.88,41498,23.06,74236.5,21.59,-4.29,0.09,0,*69
1496149602.08,41499,23.06,74238.3,21.53,-4.25,-0.11,0,*7A
1496149603.27,41500,23.06,74238.0,21.49,-3.39,0.43,0,*50
1496149604.51,41501,23.06,74238.8,21.43,-2.87,0.75,0,*5A
1496149605.72,41502,23.06,74238.5,21.41,-1.79,1.63,0,*6F
1496149606.96,41503,23.06,74238.5,21.39,-0.97,2.27,0,*53
1496149608.17,41504,23.06,74236.8,21.35,-0.77,2.35,0,*55
1496149609.41,41505,23.06,74238.5,21.35,-1.29,1.43,0,*6C
1496149610.62,41506,23.06,74238.8,21.29,-1.83,1.05,0,*60
1496149611.86,41507,23.06,74236.8,21.27,-1.33,1.17,0,*67
1496149613.09,41508,23.13,74242.8,21.19,-1.63,0.87,0,*58
1496149614.29,41509,23.06,74236.3,21.17,-1.29,1.17,0,*61
1496149615.53,41510,23.06,74236.5,21.15,-1.17,1.17,0,*66
1496149616.74,41511,23.06,74238.3,21.13,-0.85,1.47,0,*5E
1496149617.99,41512,23.06,74236.5,21.07,-1.35,0.83,0,*5B
1496149619.2,41513,23.06,74236.5,21.03,-1.17,1.01,0,*65
1496149620.43,41514,23.06,74238.0,20.99,-0.73,1.43,0,*55
1496149621.66,41515,23.13,74238.8,20.97,-1.43,0.75,0,*5C
1496149622.85,41516,23.06,74238.8,20.93,-0.49,1.63,0,*56
1496149624.04,41517,23.06,74238.8,20.91,-0.61,1.59,0,*56
1496149625.27,41518,23.06,74240.3,20.85,-1.29,0.83,0,*57
1496149626.5,41519,23.06,74242.0,20.81,-1.33,0.87,0,*5D
1496149627.68,41520,23.06,74240.5,20.79,-1.29,0.97,0,*5A
1496149628.92,41521,23.06,74238.0,20.77,-2.55,-0.19,0,*76
1496149630.15,41522,23.06,74236.0,20.73,-2.31,0.17,0,*50
1496149631.38,41523,23.13,74242.5,20.71,-0.97,1.71,0,*5C
1496149632.64,41524,23.13,74240.0,20.69,-1.43,1.21,0,*6F
1496149633.85,41525,23.06,74238.5,20.63,-1.59,1.13,0,*6E
1496149635.08,41526,23.06,74240.0,20.61,-1.13,1.83,0,*68
1496149636.3,41527,23.13,74242.0,20.59,0.09,3.03,0,*4F
1496149637.53,41528,23.06,74238.0,20.59,-0.61,2.55,0,*51
1496149638.73,41529,23.06,74240.3,20.59,-0.03,3.25,0,*62
1496149639.92,41530,23.06,74238.5,20.57,-0.15,3.23,0,*55
1496149641.14,41531,23.06,74238.5,20.57,0.29,3.71,0,*71
1496149642.35,41532,23.06,74234.5,20.59,0.01,3.53,0,*46
1496149643.56,41533,23.13,74236.8,20.59,-0.37,3.25,0,*5E
1496149644.76,41534,23.06,74236.5,20.57,-0.37,3.45,0,*51
1496149645.97,41535,23.06,74238.8,20.57,-0.65,3.45,0,*57
1496149647.2,41536,23.06,74236.8,20.55,-0.23,3.85,0,*58
1496149648.4,41537,23.06,74236.8,20.55,-0.11,4.23,0,*53
1496149649.61,41538,23.13,74238.0,20.55,-0.41,4.07,0,*5F
1496149650.82,41539,23.06,74234.5,20.55,-0.57,3.89,0,*58
1496149652.05,41540,23.06,74238.8,20.55,-0.81,3.79,0,*52
1496149653.24,41541,23.13,74238.8,20.53,-0.37,4.41,0,*54
1496149654.48,41542,23.06,74236.5,20.55,0.25,5.05,0,*7E
1496149655.69,41543,23.06,74236.5,20.55,-0.19,4.81,0,*50
1496149656.9,41544,23.06,74238.5,20.53,-1.09,3.93,0,*65
1496149658.13,41545,23.06,74238.0,20.51,-1.01,4.23,0,*62
1496149659.36,41546,23.06,74236.5,20.51,-1.35,3.85,0,*6D
1496149660.56,41547,23.13,74238.8,20.51,-0.57,4.81,0,*5A
1496149661.74,41548,23.13,74238.8,20.49,-0.69,4.85,0,*55
1496149662.92,41549,23.06,74234.5,20.49,-0.19,5.29,0,*54
1496149664.19,41550,23.06,74234.5,20.47,-2.07,3.41,0,*67
1496149665.37,41551,23.13,74234.3,20.45,-2.27,3.29,0,*68
1496149666.55,41552,23.13,74234.5,20.45,-0.41,5.29,0,*5F
1496149667.75,41553,23.06,74228.3,20.39,0.05,5.49,0,*4E
1496149668.98,41554,23.13,74234.3,20.43,-0.49,5.05,0,*59
1496149670.16,41555,23.06,74230.3,20.37,-0.07,5.33,0,*64
1496149671.4,41556,23.13,74234.0,20.39,-0.41,5.01,0,*5A
1496149672.6,41557,23.13,74232.5,20.37,0.21,5.49,0,*72
1496149673.82,41558,23.13,74234.5,20.33,-0.11,5.01,0,*5B
1496149675.0,41559,23.06,74234.8,20.33,-0.03,4.89,0,*68
1496149676.2,41560,23.06,74234.0,20.31,0.01,4.81,0,*47
1496149677.4,41561,23.06,74234.5,20.29,0.71,5.49,0,*7D
1496149678.6,41562,23.13,74238.8,20.29,1.59,6.03,0,*48
1496149679.84,41563,23.13,74238.0,20.29,2.25,6.51,0,*46
1496149681.01,41564,23.06,74236.8,20.27,1.41,5.41,0,*4C
1496149682.27,41565,23.13,74236.8,20.25,1.59,5.51,0,*47
1496149683.51,41566,23.13,74238.5,20.25,1.37,5.11,0,*48
1496149684.73,41567,23.13,74240.5,20.21,0.43,4.05,0,*7B
1496149685.98,41568,23.13,74236.3,20.21,1.71,5.27,0,*45
1496149687.21,41569,23.13,74236.8,20.17,2.99,6.35,0,*44
1496149688.42,41570,23.06,74238.5,20.15,3.29,6.43,0,*45
1496149689.63,41571,23.13,74236.5,20.15,2.69,5.63,0,*40
1496149690.87,41572,23.13,74238.0,20.15,2.25,4.97,0,*41
1496149692.11,41573,23.13,74236.0,20.11,2.05,4.75,0,*4A
1496149693.35,41574,23.13,74240.3,20.09,3.11,5.59,0,*4F
1496149694.56,41575,23.06,74238.3,20.07,3.07,5.29,0,*40
1496149695.77,41576,23.06,74238.5,20.07,3.33,5.67,0,*4E
1496149697.03,41577,23.06,74238.5,20.05,3.03,5.05,0,*4A
1496149698.27,41578,23.13,74238.8,20.03,3.03,5.01,0,*47
1496149699.49,41579,23.13,74238.8,20.01,3.25,5.23,0,*40
1496149700.74,41580,23.13,74236.3,20.01,3.97,5.73,0,*4A
1496149701.95,41581,23.06,74236.0,20.01,4.33,6.07,0,*42
1496149703.14,41582,23.06,74232.5,19.99,4.49,6.13,0,*42
1496149704.38,41583,23.13,74238.5,19.99,4.71,6.13,0,*48
1496149705.61,41584,23.13,74236.0,19.93,4.93,6.29,0,*40
1496149706.84,41585,23.13,74236.0,19.93,4.93,6.21,0,*49
1496149708.07,41586,23.13,74236.3,19.93,4.79,5.99,0,*4E